Jerez de la Frontera, Spain

11:49 AM CEST on June 26, 2017 (GMT +0200)
Jerez

Weather History for LEJR - April, 2014

Change the Weather History Date:

Sunday, April 13, 2014

  Actual Average Record
Temperature  
Mean Temperature 66 °F -  
Max Temperature 82 °F 73 °F 84 °F (2011)
Min Temperature 50 °F 50 °F 39 °F (2009)
Cooling Degree Days 1    
Growing Degree Days 16 (Base 50)    
Moisture  
Dew Point 53 °F    
Average Humidity 65    
Maximum Humidity 100    
Minimum Humidity 27    
Precipitation  
Precipitation 0.00 in 0.06 in - ()
Sea Level Pressure  
Sea Level Pressure 30.04 in    
Wind  
Wind Speed 3 mph ()    
Max Wind Speed 14 mph    
Max Gust Speed -    
Visibility 7.7 miles    
Events      
Averages and records for this station are not official NWS values.
T = Trace of Precipitation, MM = Missing Value Source: Averaged Metar Reports

Daily Weather History Graph

Daily Weather History Graph

Search for Another Location

Airport or City:

Trip Planner

Search our weather history database for the weather conditions in past years. The results will help you decide how hot, cold, wet, or windy it might be!

Date:

Astronomy

Apr. 13, 2014 Rise Set
Actual Time 7:53 AM CEST 8:56 PM CEST
Civil Twilight 7:26 AM CEST 9:23 PM CEST
Nautical Twilight 6:55 AM CEST 9:55 PM CEST
Astronomical Twilight 6:22 AM CEST 10:28 PM CEST
Moon 7:23 PM CEST (4/13) 6:41 AM CEST (4/13)
Length of Visible Light 13h 56m
Length of Day
13h 03m
Waxing Gibbous, 96% of the Moon is Illuminated
Apr 13
Waxing Gibbous
Apr 15
Full
Apr 22
Last Quarter
Apr 29
New
May 7
First Quarter

Hourly Weather History & Observations

Time (CEST) Temp. Heat Index Dew Point Humidity Pressure Visibility Wind Dir Wind Speed Gust Speed Precip Events Conditions
12:00 AM 55 °F - 54 °F 95% 30.11 in - Calm Calm - -  
1:00 AM 54 °F - 53 °F 94% 30.11 in - East 1.2 mph - -  
2:00 AM 53 °F - 52 °F 95% 30.11 in 7 mi ENE 3.5 mph - -  
3:00 AM 52 °F - 52 °F 100% 30.10 in - East 1.2 mph - -  
4:00 AM 53 °F - 53 °F 98% 30.09 in - ENE 2.3 mph - -  
4:30 AM 53.6 °F - 51.8 °F 94% 30.06 in 6.2 mi Variable 1.2 mph - N/A   Overcast
5:00 AM 54 °F - 53 °F 95% 30.08 in - NE 3.5 mph - -  
5:00 AM 53.6 °F - 51.8 °F 94% 30.06 in 6.2 mi Variable 2.3 mph - N/A   Overcast
5:30 AM 51.8 °F - 51.8 °F 100% 30.06 in 6.2 mi Variable 1.2 mph - N/A   Overcast
6:00 AM 52 °F - 52 °F 99% 30.08 in - ENE 3.5 mph - -  
6:00 AM 51.8 °F - 50.0 °F 94% 30.06 in 6.2 mi Variable 1.2 mph - N/A   Scattered Clouds
6:30 AM 51.8 °F - 50.0 °F 94% 30.06 in 6.2 mi Variable 2.3 mph - N/A   Partly Cloudy
7:00 AM 51 °F - 51 °F 100% 30.08 in - NE 2.3 mph - -  
7:00 AM 51.8 °F - 50.0 °F 94% 30.06 in 6.2 mi Variable 2.3 mph - N/A   Partly Cloudy
7:30 AM 50.0 °F - 50.0 °F 100% 30.06 in - Variable 2.3 mph - N/A   Clear
8:00 AM 51 °F - 51 °F 100% 30.09 in 9 mi Calm Calm - -   Clear
8:00 AM 50.0 °F - 50.0 °F 100% 30.06 in - Variable 1.2 mph - N/A   Clear
8:30 AM 51.8 °F - 50.0 °F 94% 30.06 in - Variable 2.3 mph - N/A   Clear
9:00 AM 55 °F - 54 °F 97% 30.10 in - NE 1.2 mph - -  
9:00 AM 53.6 °F - 51.8 °F 94% 30.09 in - Variable 1.2 mph - N/A   Clear
9:30 AM 55.4 °F - 55.4 °F 100% 30.09 in - Calm Calm - N/A   Clear
10:00 AM 63 °F - 59 °F 82% 30.10 in - NE 3.5 mph - -  
10:00 AM 60.8 °F - 57.2 °F 88% 30.09 in - NE 3.5 mph - N/A   Clear
10:30 AM 64.4 °F - 57.2 °F 77% 30.09 in - Variable 2.3 mph - N/A   Clear
11:00 AM 69 °F - 60 °F 64% 30.09 in 9 mi East 5.8 mph - -  
11:00 AM 66.2 °F - 57.2 °F 73% 30.09 in - Variable 2.3 mph - N/A   Clear
11:30 AM 68.0 °F - 59.0 °F 73% 30.09 in - North 8.1 mph - N/A   Clear
12:00 PM 72 °F - 59 °F 54% 30.09 in - North 10.4 mph - -  
12:00 PM 69.8 °F - 57.2 °F 64% 30.09 in - North 9.2 mph - N/A   Clear
12:30 PM 73.4 °F - 57.2 °F 57% 30.09 in - Variable 4.6 mph - N/A   Clear
1:00 PM 76 °F - 57 °F 42% 30.09 in - SSE 4.6 mph - -  
1:00 PM 75.2 °F - 57.2 °F 53% 30.06 in - Variable 4.6 mph - N/A   Clear
1:30 PM 75.2 °F - 55.4 °F 50% 30.06 in - South 4.6 mph - N/A   Clear
2:00 PM 79 °F - 56 °F 35% 30.06 in 19 mi SSW 2.3 mph - -  
2:00 PM 77.0 °F - 55.4 °F 47% 30.06 in - Variable 2.3 mph - N/A   Clear
2:30 PM 77.0 °F - 53.6 °F 44% 30.04 in - Variable 4.6 mph - N/A   Clear
3:00 PM 82 °F - 56 °F 30% 30.04 in - ESE 2.3 mph - -  
3:00 PM 78.8 °F - 53.6 °F 42% 30.04 in 6.2 mi Variable 2.3 mph - N/A   Partly Cloudy
3:30 PM 78.8 °F - 51.8 °F 39% 30.04 in 6.2 mi ENE 4.6 mph - N/A   Partly Cloudy
4:00 PM 82 °F - 54 °F 28% 30.02 in - SSE 9.2 mph - -  
4:00 PM 80.6 °F 80.3 °F 53.6 °F 39% 30.01 in 6.2 mi SE 9.2 mph - N/A   Partly Cloudy
4:30 PM 80.6 °F 80.3 °F 53.6 °F 39% 30.01 in 6.2 mi SSE 9.2 mph - N/A   Partly Cloudy
5:00 PM 82 °F - 54 °F 27% 29.99 in 25 mi SE 9.2 mph - -   Scattered Clouds
5:00 PM 80.6 °F 80.3 °F 53.6 °F 39% 29.98 in 6.2 mi SE 9.2 mph - N/A   Partly Cloudy
5:30 PM 80.6 °F - 51.8 °F 37% 29.98 in 6.2 mi SE 8.1 mph - N/A   Partly Cloudy
6:00 PM 81 °F - 53 °F 27% 29.97 in - ESE 12.7 mph - -  
6:00 PM 80.6 °F - 50.0 °F 34% 29.98 in 6.2 mi SE 11.5 mph - N/A   Partly Cloudy
6:30 PM 80.6 °F - 50.0 °F 34% 29.98 in 6.2 mi ESE 13.8 mph - N/A   Partly Cloudy
7:00 PM 78 °F - 52 °F 29% 29.97 in - ESE 13.8 mph - -  
7:00 PM 78.8 °F - 50.0 °F 36% 29.98 in 6.2 mi SE 13.8 mph - N/A   Partly Cloudy
7:30 PM 77.0 °F - 50.0 °F 39% 29.95 in 6.2 mi SE 11.5 mph - N/A   Partly Cloudy
8:00 PM 77 °F - 51 °F 30% 29.97 in 31 mi East 8.1 mph - -  
8:00 PM 75.2 °F - 50.0 °F 41% 29.95 in - East 8.1 mph - N/A   Clear
8:30 PM 75.2 °F - 50.0 °F 41% 29.95 in - SE 4.6 mph - N/A   Clear
9:00 PM 72 °F - 58 °F 51% 29.97 in - ESE 1.2 mph - -  
9:00 PM 71.6 °F - 50.0 °F 46% 29.95 in - Variable 1.2 mph - N/A   Clear
9:30 PM 69.8 °F - 50.0 °F 49% 29.98 in - Variable 2.3 mph - N/A   Clear
10:00 PM 67 °F - 51 °F 45% 29.99 in - ESE 2.3 mph - -  
10:00 PM 66.2 °F - 50.0 °F 56% 29.98 in - SE 3.5 mph - N/A   Clear
10:30 PM 62.6 °F - 51.8 °F 68% 29.98 in - SSW 6.9 mph - N/A   Clear
11:00 PM 60 °F - 51 °F 63% 29.99 in 19 mi South 4.6 mph - -  
11:00 PM 59.0 °F - 50.0 °F 72% 29.98 in - South 4.6 mph - N/A   Clear